{"data":{"norad_id":57731,"intl_designator":"2023-130E","name":"YAOGAN-39 01C","alt_names":[],"object_type":"PAYLOAD","status":"ACTIVE","operator":null,"country":"PRC","launch_date":"2023-08-31","launch_site_code":"XICLF","launch_vehicle":null,"mission":null,"orbit_class":"UNKNOWN","rcs_meters":null,"size_class":null,"mass_kg":null,"dimensions":null,"purposes":[],"wikipedia_slug":null,"has_3d_model":false,"image_url":null,"decayed_at":null,"tle_current":{"epoch":"2026-05-25T03:21:40.667328Z","epoch_age_seconds":69721,"freshness":"FRESH","line1":"1 57731U 23130E   26145.14005402  .00005562  00000+0  28451-3 0  9996","line2":"2 57731  34.9936 295.4787 0009023 112.0781 248.0890 15.15983969151964","mean_motion":15.15983969,"eccentricity":0.0009023,"inclination_deg":34.9936,"raan_deg":295.4787,"arg_perigee_deg":112.0781,"mean_anomaly_deg":248.089,"bstar":0.00028451,"rev_number":15196,"period_min":94.987811840113,"perigee_km":511.77055218236,"apogee_km":524.21530825444,"semimajor_km":6896.1299302184,"source":"CELESTRAK","updated_at":"2026-05-25T13:38:00.224003Z"}}}